Location: Branche des Alpilles
(43.6087°N, 4.6976°E)
Time: 04:15:49
(UTC+00:00)

CSL-04 Rocket - Pass Details

Date: 30 November 2020
Orbit: 807 x 859 km, 98.9° (Epoch: 24 January)

Event Time Altitude Azimuth Distance (km) Brightness Sun altitude
Exits shadow 18:01:08 31° 39° (NE) 1,402 4.4 -20.3°
Drops below altitude 10° 18:04:39 10° 3° (N) 2,407 5.9 -20.9°
Sets 18:07:09 0° 354° (N) 3,339 6.8 -21.4°
